Home > Weather > Wörgl > Past weeks

Flag for Austria Weather for the Past 2 Weeks in Wörgl, Tyrol, Austria

Now
34 °F

Chilly.


Feels Like: 31 °F
Forecast: 34 / 56 °F
Wind: 3 mph from West

Location: Kufstein

Current Time: Feb 6, 2016 at 8:45:26 AM

Latest Report: Feb 6, 2016 at 8:00 AM


Visibility: N/A

Pressure: 30.33 "Hg (28.45 "Hg at 514m altitude)

Humidity: 88%

Dew point: 31 °F

Location of WörglLocation

Historic Weather in Wörgl — Graph

°F

Wörgl Temperature Yesterday

Maximum temperature yesterday: 38 °F (at 4:00 PM)
Minimum temperature yesterday: 34 °F (at 9:00 AM)
Average temperature yesterday: 36 °F

High & Low Weather Summary for the Past Weeks

 TemperatureHumidityPressure
High51 °F (Feb 1, 3:00 PM)100% (Jan 26, 7:00 AM)30.74 "Hg (Jan 26, 7:00 AM)
Low14 °F (Jan 22, 9:00 AM)63% (Jan 22, 3:00 PM)29.97 "Hg (Jan 30, 11:00 PM)
Average35 °F90%30.40 "Hg
* Reported Jan 22 7:00 AM — Feb 6 7:00 AM, Wörgl, Weather by CustomWeather, © 2016

Note: Actual official high and low records may vary slightly from our data, if they occured in-between our weather recording intervals... More about our weather records

Advertising

Wörgl Weather History for the Previous 24 Hours

 ConditionsComfort  
Time TempWeatherWind HumidityBarometerVisibility
7:00 AM
Sat, Feb 6
35 °FFog.3 mph89%30.32 "Hg2 mi
6:00 AM36 °FChilly.3 mph89%30.32 "HgN/A
5:00 AM37 °FChilly.2 mph88%30.33 "HgN/A
4:00 AM36 °FChilly.2 mph89%30.33 "HgN/A
3:00 AM36 °FChilly.2 mph91%30.34 "HgN/A
12:00 AM35 °FChilly.3 mph97%30.38 "HgN/A
11:00 PM
Fri, Feb 5
35 °FChilly.3 mph97%30.39 "HgN/A
10:00 PM34 °FChilly.3 mph98%30.41 "HgN/A
9:00 PM35 °FChilly.1 mph97%30.42 "HgN/A
8:00 PM36 °FChilly.1 mph96%30.42 "HgN/A
7:00 PM36 °FChilly.2 mph95%30.43 "HgN/A
6:00 PM37 °FChilly.1 mph93%30.42 "HgN/A
5:00 PM38 °FChilly.3 mph91%30.41 "HgN/A
4:00 PM38 °FChilly.2 mph88%30.41 "HgN/A
3:00 PM38 °FChilly.2 mph90%30.42 "HgN/A
2:00 PM37 °FChilly.2 mph90%30.43 "HgN/A
1:00 PM37 °FChilly.3 mph91%30.45 "HgN/A
12:00 PM37 °FChilly.1 mph91%30.46 "HgN/A
11:00 AM35 °FChilly.1 mph95%30.48 "HgN/A
10:00 AM35 °FChilly.1 mph95%30.47 "HgN/A
9:00 AM34 °FSprinkles. Cloudy.1 mph97%30.47 "HgN/A
8:00 AM34 °FChilly.1 mph95%30.45 "HgN/A
Weather by CustomWeather, © 2016

See weather overviewHow to use our weather pages